Flag for Cameroon Weather past 2 weeks in Yaoundé, Cameroon

Now
73 °F

Thunderstorms. Passing clouds.


Feels Like: 72 °F
Forecast: 69 / 83 °F
Wind: 1 mph from North

Location: Yaounde Airport

Current Time: May 6, 2015 at 11:35:05 PM

Latest Report: May 6, 2015 at 11:00 PM


Visibility: N/A

Pressure: 30.07 "Hg

Humidity: 89%

Dew point: 70 °F

Location of YaoundéLocation

Historic Weather in Yaoundé — Graph

°F

Yaoundé temperature yesterday

Maximum temperature yesterday: 86 °F (at 2:00 PM)
Minimum temperature yesterday: 72 °F (at 12:00 AM)
Average temperature yesterday: 76 °F

Past Weeks' High & Low Weather Summary

 TemperatureHumidityPressure
High91 °F (Apr 27, 3:00 PM)100% (Apr 22, 4:00 AM)30.12 "Hg (Apr 22, 4:00 AM)
Low66 °F (Apr 22, 4:00 AM)49% (Apr 27, 2:00 PM)29.86 "Hg (Apr 30, 5:00 PM)
Average76 °F81%30.00 "Hg
* Reported Apr 21 9:00 PM — May 6 9:00 PM, Yaoundé, Weather by CustomWeather, © 2015

Note: Actual official high and low records may vary slightly from our data, if they occured in-between our weather recording intervals... More about our weather records

Advertising

Yaoundé weather history for previous 24 hours

 ConditionsComfort  
Time TempWeatherWind HumidityBarometerVisibility
9:00 PM
Wed, May 6
75 °FThunderstorms. Passing clouds.5 mph83%30.01 "HgN/A
8:00 PM77 °FThunderstorms. Passing clouds.3 mph79%29.98 "HgN/A
7:00 PM77 °FThunderstorms. Passing clouds.5 mph83%29.95 "HgN/A
6:00 PM79 °FThunderstorms. Scattered clouds.7 mph79%29.92 "HgN/A
5:00 PM81 °FThunderstorms. Scattered clouds.6 mph74%29.92 "HgN/A
4:00 PM84 °FThunderstorms. Partly sunny.3 mph62%29.92 "HgN/A
3:00 PM88 °FPartly sunny.2 mph52%29.95 "HgN/A
2:00 PM86 °FPartly sunny.5 mph59%29.95 "HgN/A
1:00 PM86 °FPartly sunny.3 mph59%30.01 "HgN/A
12:00 PM82 °FPartly sunny.2 mph66%30.04 "HgN/A
11:00 AM81 °FPartly sunny.5 mph70%30.04 "HgN/A
10:00 AM79 °FPartly sunny.2 mph74%30.07 "HgN/A
9:00 AM75 °FPartly sunny.No wind78%30.07 "HgN/A
8:00 AM72 °FPartly sunny.1 mph88%30.07 "Hg5 mi
7:00 AM70 °FPartly sunny.1 mph94%30.04 "Hg5 mi
6:00 AM70 °FPassing clouds.2 mph94%30.01 "Hg5 mi
5:00 AM70 °FPassing clouds.No wind94%29.98 "Hg5 mi
4:00 AM70 °FPassing clouds.3 mph94%29.98 "Hg5 mi
3:00 AM70 °FPassing clouds.2 mph94%30.01 "Hg5 mi
2:00 AM70 °FPassing clouds.6 mph94%30.01 "Hg5 mi
1:00 AM72 °FPassing clouds.3 mph94%30.04 "Hg5 mi
12:00 AM72 °FPassing clouds.3 mph94%30.07 "Hg5 mi
11:00 PM
Tue, May 5
72 °FThunderstorms. Passing clouds.5 mph94%30.07 "Hg5 mi
Weather by CustomWeather, © 2015

See weather overviewHow to use our weather pages